星链-31084 (STARLINK-31084 )

导读 | 星芒AI

STARLINK-31084 是 SpaceX Starlink 项目中的一颗低轨卫星,属于第二代 Starlink 卫星星座的一部分。该卫星于2023年发射,旨在为全球提供高速、低延迟的宽带互联网服务。它运行在约550公里高的近地轨道,配备先进通信设备和激光链路,以提升网络连接效率。作为 Starlink 计划的重要组成部分,STARLINK-31084 有助于扩大卫星互联网覆盖范围,特别是在偏远和网络基础设施薄弱的地区。

基本信息
目录编号:
58630
目录名称:
STARLINK-31084
国际标识:
2023-203N
轨道中心:
EARTH
卫星名称:
星链-31084
卫星全名:
星链-31084 (STARLINK-31084 )
卫星状态:
在轨 (已飞行727 天)
发射日期:
2023-12-23 UTC
国别 :
美国 (US)
星等 :
--
轨道信息
数据来源 国际轨道数据
星历时间: 2025-12-18T21:43:06+0800
1天前
查看轨道信息
半长轴: 6861.413km
偏心率: 0.0000991
轨道倾角: 42.999°
近地点辐角 272.814°
升交点赤经 168.793°
平近点角 87.259°
近地点: 482.598km
远地点: 483.958km
周期: 94.271分钟
每日圈数: 15.275044
详细信息
固有亮度:
5
最大亮度:
0.3
卫星平台:
Starlink v2.0 mini
覆盖范围:
全球
运营商:
太空探索技术公司
运营商所在国:
美国
制造商(研发单位):
太空探索技术公司
制造商所在国:
美国
使用方式:
暂无
卫星简介
星链(Starlink)计划是由太空探索技术公司(SpaceX)提出的一个巨型低轨卫星互联网星座项目,计划在2019年至2024年间在太空搭建由约1.2万颗卫星组成的“星链”网络,其中1584颗将部署在地球上空550千米处的近地轨道,并从2020年开始工作。该卫星仍在工作。
2D轨道图
3D轨道图
轨道高度分析图
轨道倾角分析图
轨道综合分析图
查看轨道综合分析图